| time (UTC) | temp F | wind direction | speed MPH | gust MPH | rain 1hr in | rain 24hr in | rain mn in | humidity % | barometer mb |
| 20260510065517 | 59 | 0.0 | 2.0 | 0.00 | 0.00 | 0.00 | 70 | 1013.4 | |
| 20260510064517 | 58 | 0.0 | 2.0 | 0.00 | 0.00 | 0.00 | 71 | 1013.5 | |
| 20260510063537 | 57 | 248 | 1.0 | 3.0 | 0.00 | 0.00 | 0.00 | 74 | 1013.7 |
| 20260510062517 | 56 | 0.0 | 6.0 | 0.00 | 0.00 | 0.00 | 76 | 1013.7 | |
| 20260510061517 | 54 | 90 | 1.0 | 6.0 | 0.00 | 0.00 | 0.00 | 79 | 1013.7 |
| 20260510060517 | 52 | 248 | 1.0 | 3.0 | 0.00 | 0.00 | 0.00 | 83 | 1013.7 |
| 20260510055517 | 51 | 248 | 1.0 | 3.0 | 0.00 | 0.00 | 0.00 | 84 | 1013.7 |
| 20260510054537 | 50 | 180 | 1.0 | 4.0 | 0.00 | 0.00 | 0.00 | 86 | 1013.8 |
| 20260510053517 | 49 | 248 | 1.0 | 3.0 | 0.00 | 0.00 | 0.00 | 87 | 1013.9 |
| 20260510052517 | 48 | 0.0 | 2.0 | 0.00 | 0.00 | 0.00 | 88 | 1014.1 | |
| 20260510051517 | 47 | 68 | 1.0 | 5.0 | 0.00 | 0.00 | 0.00 | 90 | 1013.9 |
| 20260510050537 | 47 | 0.0 | 2.0 | 0.00 | 0.00 | 0.00 | 90 | 1014.0 | |
| 20260510045517 | 46 | 158 | 1.0 | 2.0 | 0.00 | 0.00 | 0.00 | 90 | 1014.2 |
| 20260510044537 | 45 | 158 | 1.0 | 2.0 | 0.00 | 0.00 | 0.00 | 89 | 1014.1 |
| 20260510043517 | 45 | 0.0 | 2.0 | 0.00 | 0.00 | 0.00 | 89 | 1014.1 | |
| 20260510042517 | 45 | 0.0 | 2.0 | 0.00 | 0.00 | 0.00 | 89 | 1014.2 | |
| 20260510041517 | 44 | 0.0 | 0.0 | 0.00 | 0.00 | 0.00 | 89 | 1014.2 | |
| 20260510040517 | 44 | 0.0 | 1.0 | 0.00 | 0.00 | 0.00 | 89 | 1014.2 | |
| 20260510035517 | 44 | 0.0 | 0.0 | 0.00 | 0.00 | 0.00 | 88 | 1014.3 | |
| 20260510034517 | 45 | 0.0 | 0.0 | 0.00 | 0.00 | 0.00 | 88 | 1014.4 | |
| 20260510033537 | 45 | 0.0 | 1.0 | 0.00 | 0.00 | 0.00 | 88 | 1014.5 | |
| 20260510032540 | 45 | 0.0 | 2.0 | 0.00 | 0.00 | 0.00 | 87 | 1014.3 | |
| 20260510031517 | 45 | 0.0 | 0.0 | 0.00 | 0.00 | 0.00 | 87 | 1014.4 | |
| 20260510030537 | 46 | 0.0 | 1.0 | 0.00 | 0.00 | 0.00 | 87 | 1014.3 | |
| 20260510025517 | 46 | 0.0 | 4.0 | 0.00 | 0.00 | 0.00 | 87 | 1014.4 | |
| 20260510024517 | 46 | 0.0 | 3.0 | 0.00 | 0.00 | 0.00 | 86 | 1014.4 | |
| 20260510023537 | 47 | 0.0 | 3.0 | 0.00 | 0.00 | 0.00 | 86 | 1014.6 | |
| 20260510022557 | 47 | 0.0 | 2.0 | 0.00 | 0.00 | 0.00 | 85 | 1014.6 | |
| 20260510021537 | 48 | 0.0 | 3.0 | 0.00 | 0.00 | 0.00 | 85 | 1014.6 | |
| 20260510020517 | 48 | 0.0 | 4.0 | 0.00 | 0.00 | 0.00 | 85 | 1014.6 | |
| 20260510015517 | 48 | 0 | 1.0 | 4.0 | 0.00 | 0.00 | 0.00 | 84 | 1014.6 |
| 20260510014517 | 48 | 68 | 1.0 | 4.0 | 0.00 | 0.00 | 0.00 | 84 | 1014.6 |
| 20260510013517 | 49 | 0.0 | 1.0 | 0.00 | 0.00 | 0.00 | 84 | 1014.9 | |
| 20260510012517 | 49 | 248 | 1.0 | 5.0 | 0.00 | 0.00 | 0.00 | 84 | 1014.8 |
| 20260510011516 | 49 | 68 | 1.0 | 3.0 | 0.00 | 0.00 | 0.00 | 84 | 1014.7 |
| 20260510010516 | 49 | 68 | 1.0 | 4.0 | 0.00 | 0.00 | 0.00 | 83 | 1014.9 |
| 20260510005516 | 49 | 0.0 | 3.0 | 0.00 | 0.00 | 0.00 | 83 | 1015.1 | |
| 20260510004517 | 49 | 0.0 | 1.0 | 0.00 | 0.00 | 0.00 | 82 | 1015.3 | |
| 20260510003540 | 49 | 0.0 | 2.0 | 0.00 | 0.00 | 0.00 | 82 | 1015.3 | |
| 20260510002517 | 50 | 0.0 | 2.0 | 0.00 | 0.00 | 0.00 | 82 | 1015.6 | |
| 20260510001516 | 50 | 0.0 | 1.0 | 0.00 | 0.00 | 0.00 | 82 | 1015.5 | |
| 20260510000517 | 50 | 0.0 | 4.0 | 0.00 | 0.00 | 0.00 | 82 | 1015.7 | |
| 20260509235516 | 50 | 0.0 | 3.0 | 0.00 | 0.00 | 0.00 | 81 | 1015.9 | |
| 20260509234537 | 51 | 68 | 1.0 | 4.0 | 0.00 | 0.00 | 0.00 | 81 | 1015.9 |
| 20260509233516 | 51 | 0.0 | 4.0 | 0.00 | 0.00 | 0.00 | 80 | 1016.3 | |
| 20260509232516 | 51 | 0.0 | 2.0 | 0.00 | 0.00 | 0.00 | 79 | 1016.2 | |
| 20260509231516 | 51 | 0.0 | 2.0 | 0.00 | 0.00 | 0.00 | 79 | 1016.2 | |
| 20260509230516 | 52 | 0.0 | 1.0 | 0.00 | 0.00 | 0.00 | 78 | 1016.3 | |
| 20260509225516 | 52 | 158 | 1.0 | 3.0 | 0.00 | 0.00 | 0.00 | 78 | 1016.2 |
| 20260509224516 | 52 | 158 | 1.0 | 5.0 | 0.00 | 0.00 | 0.00 | 78 | 1016.2 |
| 20260509223536 | 52 | 248 | 1.0 | 4.0 | 0.00 | 0.00 | 0.00 | 78 | 1016.3 |
| 20260509222516 | 53 | 0.0 | 2.0 | 0.00 | 0.00 | 0.00 | 78 | 1016.1 | |
| 20260509221516 | 53 | 158 | 1.0 | 3.0 | 0.00 | 0.00 | 0.00 | 77 | 1016.3 |
| 20260509220516 | 53 | 158 | 1.0 | 2.0 | 0.00 | 0.00 | 0.00 | 77 | 1016.3 |
| 20260509215517 | 53 | 338 | 1.0 | 3.0 | 0.00 | 0.00 | 0.00 | 77 | 1016.2 |
| 20260509214517 | 53 | 0.0 | 4.0 | 0.00 | 0.00 | 0.00 | 77 | 1016.1 | |
| 20260509213537 | 54 | 0.0 | 2.0 | 0.00 | 0.00 | 0.00 | 77 | 1016.4 | |
| 20260509212537 | 54 | 158 | 1.0 | 4.0 | 0.00 | 0.00 | 0.00 | 77 | 1016.5 |
| 20260509211517 | 54 | 0.0 | 1.0 | 0.00 | 0.00 | 0.00 | 77 | 1016.6 | |
| 20260509210517 | 54 | 0.0 | 4.0 | 0.00 | 0.00 | 0.00 | 77 | 1016.6 | |
| 20260509205517 | 54 | 113 | 1.0 | 5.0 | 0.00 | 0.00 | 0.00 | 77 | 1016.5 |
| 20260509204517 | 54 | 0.0 | 3.0 | 0.00 | 0.00 | 0.00 | 78 | 1016.5 | |
| 20260509203517 | 54 | 0.0 | 0.0 | 0.00 | 0.00 | 0.00 | 79 | 1016.7 | |
| 20260509202517 | 54 | 0.0 | 0.0 | 0.00 | 0.00 | 0.00 | 79 | 1016.5 | |
| 20260509201537 | 54 | 0.0 | 0.0 | 0.00 | 0.00 | 0.00 | 78 | 1016.4 | |
| 20260509200537 | 54 | 0.0 | 0.0 | 0.00 | 0.00 | 0.00 | 77 | 1016.4 | |
| 20260509195517 | 55 | 0.0 | 0.0 | 0.00 | 0.00 | 0.00 | 76 | 1016.5 | |
| 20260509194517 | 55 | 0.0 | 0.0 | 0.00 | 0.00 | 0.00 | 75 | 1016.3 | |
| 20260509193517 | 56 | 0.0 | 0.0 | 0.00 | 0.00 | 0.00 | 75 | 1016.3 | |
| 20260509192517 | 56 | 0.0 | 0.0 | 0.00 | 0.00 | 0.00 | 74 | 1016.2 | |
| 20260509191516 | 57 | 0.0 | 0.0 | 0.00 | 0.00 | 0.00 | 73 | 1016.1 | |
| 20260509190537 | 57 | 0.0 | 0.0 | 0.00 | 0.00 | 0.00 | 72 | 1016.0 | |
| 20260509185517 | 58 | 0.0 | 0.0 | 0.00 | 0.00 | 0.00 | 70 | 1015.9 | |
| 20260509184516 | 59 | 0.0 | 0.0 | 0.00 | 0.00 | 0.00 | 69 | 1015.8 | |
| 20260509183516 | 61 | 0.0 | 0.0 | 0.00 | 0.00 | 0.00 | 67 | 1015.8 | |
| 20260509182516 | 62 | 0.0 | 0.0 | 0.00 | 0.00 | 0.00 | 66 | 1015.7 | |
| 20260509181516 | 63 | 0.0 | 0.0 | 0.00 | 0.00 | 0.00 | 64 | 1015.8 | |
| 20260509180537 | 63 | 0.0 | 0.0 | 0.00 | 0.00 | 0.00 | 61 | 1015.5 | |
| 20260509175517 | 64 | 0.0 | 0.0 | 0.00 | 0.00 | 0.00 | 61 | 1015.5 | |
| 20260509174517 | 65 | 0.0 | 1.0 | 0.00 | 0.00 | 0.00 | 59 | 1015.6 | |
| 20260509173536 | 65 | 0.0 | 2.0 | 0.00 | 0.00 | 0.00 | 58 | 1015.5 | |
| 20260509172537 | 66 | 0.0 | 2.0 | 0.00 | 0.00 | 0.00 | 57 | 1015.4 | |
| 20260509171516 | 66 | 68 | 1.0 | 4.0 | 0.00 | 0.00 | 0.00 | 57 | 1015.5 |
| 20260509170516 | 67 | 0.0 | 2.0 | 0.00 | 0.00 | 0.00 | 57 | 1015.6 | |
| 20260509165519 | 68 | 0.0 | 2.0 | 0.00 | 0.00 | 0.00 | 55 | 1015.8 | |
| 20260509164516 | 68 | 0.0 | 1.0 | 0.00 | 0.00 | 0.00 | 55 | 1015.8 | |
| 20260509163516 | 67 | 0.0 | 3.0 | 0.00 | 0.00 | 0.00 | 53 | 1015.7 | |
| 20260509162516 | 68 | 0.0 | 1.0 | 0.00 | 0.00 | 0.00 | 51 | 1015.7 | |
| 20260509161516 | 69 | 0.0 | 2.0 | 0.00 | 0.00 | 0.00 | 52 | 1015.7 | |
| 20260509160516 | 69 | 0.0 | 2.0 | 0.00 | 0.00 | 0.00 | 56 | 1016.0 | |
| 20260509155516 | 69 | 0.0 | 2.0 | 0.00 | 0.00 | 0.00 | 54 | 1015.9 | |
| 20260509154516 | 70 | 45 | 1.0 | 4.0 | 0.00 | 0.00 | 0.00 | 52 | 1016.0 |
| 20260509153516 | 71 | 248 | 1.0 | 4.0 | 0.00 | 0.00 | 0.00 | 52 | 1016.2 |
| 20260509152516 | 70 | 180 | 1.0 | 2.0 | 0.00 | 0.00 | 0.00 | 50 | 1016.1 |
| 20260509151516 | 69 | 0 | 1.0 | 3.0 | 0.00 | 0.00 | 0.00 | 49 | 1016.1 |
| 20260509150516 | 69 | 315 | 1.0 | 3.0 | 0.00 | 0.00 | 0.00 | 51 | 1016.2 |
| 20260509145516 | 69 | 293 | 2.0 | 7.0 | 0.00 | 0.00 | 0.00 | 54 | 1016.4 |
| 20260509144516 | 69 | 23 | 1.0 | 3.0 | 0.00 | 0.00 | 0.00 | 53 | 1016.5 |
| 20260509143516 | 70 | 248 | 3.0 | 7.0 | 0.00 | 0.00 | 0.00 | 50 | 1016.6 |
| 20260509142556 | 69 | 203 | 1.0 | 3.0 | 0.00 | 0.00 | 0.00 | 51 | 1016.6 |
| 20260509141516 | 69 | 270 | 2.0 | 4.0 | 0.00 | 0.00 | 0.00 | 52 | 1016.6 |
| 20260509140516 | 67 | 0.0 | 3.0 | 0.00 | 0.00 | 0.00 | 58 | 1016.7 | |
| 20260509135516 | 67 | 293 | 1.0 | 2.0 | 0.00 | 0.00 | 0.00 | 55 | 1016.9 |
| 20260509134536 | 68 | 0.0 | 3.0 | 0.00 | 0.00 | 0.00 | 56 | 1017.0 | |
| 20260509133516 | 67 | 248 | 1.0 | 4.0 | 0.00 | 0.00 | 0.00 | 55 | 1017.1 |
| 20260509132536 | 67 | 270 | 2.0 | 4.0 | 0.00 | 0.00 | 0.00 | 61 | 1017.3 |
| 20260509131516 | 66 | 270 | 3.0 | 6.0 | 0.00 | 0.00 | 0.00 | 57 | 1017.4 |
| 20260509130516 | 66 | 270 | 3.0 | 6.0 | 0.00 | 0.00 | 0.00 | 58 | 1017.7 |
| 20260509125516 | 65 | 248 | 3.0 | 6.0 | 0.00 | 0.00 | 0.00 | 58 | 1017.6 |
| 20260509124556 | 65 | 315 | 2.0 | 6.0 | 0.00 | 0.00 | 0.00 | 59 | 1017.5 |
| 20260509123516 | 66 | 338 | 1.0 | 4.0 | 0.00 | 0.00 | 0.00 | 57 | 1017.6 |
| 20260509122516 | 67 | 225 | 3.0 | 8.0 | 0.00 | 0.00 | 0.00 | 58 | 1017.9 |
| 20260509121636 | 65 | 315 | 1.0 | 3.0 | 0.00 | 0.00 | 0.00 | 60 | 1017.8 |
| 20260509120516 | 65 | 315 | 1.0 | 3.0 | 0.00 | 0.00 | 0.00 | 58 | 1018.0 |
| 20260509115516 | 65 | 293 | 1.0 | 3.0 | 0.00 | 0.00 | 0.00 | 63 | 1018.0 |
| 20260509114516 | 64 | 315 | 2.0 | 5.0 | 0.00 | 0.00 | 0.00 | 61 | 1018.1 |
| 20260509113516 | 67 | 113 | 1.0 | 4.0 | 0.00 | 0.00 | 0.00 | 64 | 1018.2 |
| 20260509112516 | 66 | 158 | 2.0 | 6.0 | 0.00 | 0.00 | 0.00 | 59 | 1018.3 |
| 20260509111516 | 65 | 0.0 | 2.0 | 0.00 | 0.00 | 0.00 | 60 | 1018.2 | |
| 20260509110536 | 63 | 45 | 2.0 | 8.0 | 0.00 | 0.00 | 0.00 | 63 | 1018.3 |
| 20260509105516 | 64 | 0.0 | 2.0 | 0.00 | 0.00 | 0.00 | 62 | 1018.5 | |
| 20260509104516 | 64 | 0.0 | 4.0 | 0.00 | 0.00 | 0.00 | 64 | 1018.6 | |
| 20260509103515 | 64 | 248 | 3.0 | 6.0 | 0.00 | 0.00 | 0.00 | 65 | 1018.7 |
| 20260509102535 | 63 | 270 | 2.0 | 7.0 | 0.00 | 0.00 | 0.00 | 65 | 1018.7 |
| 20260509101518 | 62 | 158 | 3.0 | 6.0 | 0.00 | 0.00 | 0.00 | 64 | 1018.8 |
| 20260509100517 | 63 | 158 | 3.0 | 7.0 | 0.00 | 0.00 | 0.00 | 68 | 1018.8 |
| 20260509095518 | 62 | 180 | 3.0 | 6.0 | 0.00 | 0.00 | 0.00 | 67 | 1018.8 |
| 20260509094518 | 62 | 203 | 3.0 | 5.0 | 0.00 | 0.00 | 0.00 | 68 | 1019.1 |
| 20260509093517 | 63 | 158 | 2.0 | 5.0 | 0.00 | 0.00 | 0.00 | 66 | 1019.1 |
| 20260509092516 | 63 | 225 | 2.0 | 5.0 | 0.00 | 0.00 | 0.00 | 70 | 1019.0 |
| 20260509091517 | 62 | 158 | 2.0 | 5.0 | 0.00 | 0.00 | 0.00 | 70 | 1019.0 |
| 20260509090518 | 62 | 158 | 4.0 | 8.0 | 0.00 | 0.00 | 0.00 | 69 | 1019.1 |
| 20260509085517 | 62 | 180 | 1.0 | 3.0 | 0.00 | 0.00 | 0.00 | 70 | 1019.3 |
| 20260509084518 | 61 | 158 | 3.0 | 9.0 | 0.00 | 0.00 | 0.00 | 72 | 1019.2 |
| 20260509083518 | 60 | 45 | 1.0 | 4.0 | 0.00 | 0.00 | 0.00 | 75 | 1019.0 |
| 20260509082517 | 59 | 45 | 1.0 | 5.0 | 0.00 | 0.00 | 0.00 | 74 | 1019.2 |
| 20260509081517 | 58 | 68 | 1.0 | 4.0 | 0.00 | 0.00 | 0.00 | 77 | 1019.1 |
| 20260509080517 | 58 | 0.0 | 3.0 | 0.00 | 0.00 | 0.00 | 78 | 1019.2 | |
| 20260509075517 | 57 | 23 | 1.0 | 4.0 | 0.00 | 0.00 | 0.00 | 79 | 1019.1 |
| 20260509074518 | 56 | 0 | 1.0 | 3.0 | 0.00 | 0.00 | 0.00 | 80 | 1019.0 |
| 20260509073517 | 56 | 0 | 1.0 | 4.0 | 0.00 | 0.00 | 0.00 | 84 | 1019.0 |
| 20260509072517 | 55 | 45 | 1.0 | 4.0 | 0.00 | 0.00 | 0.00 | 86 | 1019.2 |
| 20260509071517 | 54 | 45 | 1.0 | 5.0 | 0.00 | 0.00 | 0.00 | 90 | 1019.1 |
| 20260509070518 | 52 | 0.0 | 2.0 | 0.00 | 0.00 | 0.00 | 92 | 1019.0 |